Location: Borovka
(49.7741°N, 14.5280°E)
Time: 15:22:18
(UTC+00:00)

Thor Agena Rocket - Pass Details

Date: 14 February 2026
Orbit: 755 x 801 km, 99.1° (Epoch: 7 March)

Event Time Altitude Azimuth Distance (km) Brightness Sun altitude
Rises 04:03:40 0° 32° (NNE) 3,313 7.3 -21.6°
Reaches altitude 10° 04:07:30 10° 60° (ENE) 2,382 7.0 -20.9°
Maximum altitude 04:09:46 13° 86° (E) 2,193 7.0 -20.6°
Drops below altitude 10° 04:12:02 10° 112° (ESE) 2,378 7.0 -20.2°
Sets 04:15:50 0° 140° (SE) 3,301 7.3 -19.6°
